This demonstration page uses our WeatherBlox Daily Observations layout. Learn more.

Left ArrowRight Arrow

41.55636, -103.73856

Hourly Observations for October 1, 2021

Temp ( °F °C ) Dew Point ( °F °C ) Humidity (%) Winds ( mph kmh ) Pressure ( in mb ) Visibility ( mi km ) Precip ( " mm )
12:58 am 00:58 Clear 40 4.7 33 0.7 76 76 W 3 6 30.22 1024 10 16 0.00 0.00
1:58 am 01:58 Clear 39 3.7 32 -0.2 76 76 WSW 5 7 30.22 1024 10 16 0.00 0.00
2:58 am 02:58 Clear 40 4.2 34 1 80 80 WNW 3 6 30.19 1023 10 16 0.00 0.00
3:58 am 03:58 Clear 38 3.4 34 1.2 86 86 SW 7 11 30.19 1023 10 16 0.00 0.00
4:58 am 04:58 Clear 38 3.2 33 0.5 83 83 WNW 5 7 30.18 1022 10 16 0.00 0.00
5:58 am 05:58 Clear 35 1.4 33 0.4 93 93 SSW 7 11 30.21 1023 10 16 0.00 0.00
6:58 am 06:58 Sunny 39 3.7 34 1.2 84 84 W 5 7 30.23 1024 10 16 0.00 0.00
7:58 am 07:58 Sunny 39 4.1 34 1.3 82 82 NW 3 6 30.24 1024 10 16 0.00 0.00
8:58 am 08:58 Sunny 46 7.7 36 2.1 68 68 W 3 6 30.22 1023 10 16 0.00 0.00
9:58 am 09:58 Sunny 57 13.7 37 2.9 48 48 WNW 3 6 30.20 1023 10 16 0.00 0.00
10:58 am 10:58 Sunny 60 15.6 36 2.2 41 41 NE 3 6 30.18 1022 10 16 0.00 0.00
11:58 am 11:58 Sunny 61 16.2 35 1.9 38 38 Calm 30.17 1022 10 16 0.00 0.00
12:58 pm 12:58 Sunny 65 18.2 35 1.5 33 33 Calm 30.16 1022 10 16 0.00 0.00
1:58 pm 13:58 Sunny 67 19.3 35 1.4 30 30 Calm 30.13 1020 10 16 0.00 0.00
2:58 pm 14:58 Sunny 68 20.2 35 1.4 29 29 Calm 30.11 1020 10 16 0.00 0.00
3:58 pm 15:58 Sunny 69 20.6 34 1.1 27 27 Calm 30.10 1019 10 16 0.00 0.00
4:58 pm 16:58 Sunny 69 20.3 34 1.2 28 28 NE 5 7 30.10 1019 10 16 0.00 0.00
5:58 pm 17:58 Sunny 66 19.1 35 1.4 31 31 E 5 7 30.12 1020 10 16 0.00 0.00
6:58 pm 18:58 Clear 58 14.4 36 2.4 45 45 E 12 19 30.15 1021 10 16 0.00 0.00
7:58 pm 19:58 Clear 56 13.5 37 3 49 49 ESE 10 17 30.16 1022 10 16 0.00 0.00
8:58 pm 20:58 Clear 56 13.3 37 3 50 50 SSE 8 13 30.16 1021 10 16 0.00 0.00
9:58 pm 21:58 Clear 51 10.5 37 3 60 60 S 5 7 30.14 1021 10 16 0.00 0.00
10:58 pm 22:58 Clear 49 9.6 37 2.5 62 62 SW 6 9 30.15 1021 10 16 0.00 0.00

Powered by AerisWeather